Regional Weather Roundup
Issued by NWS

Home | Current Version | Previous Version | Text Only | Print | Product List | Glossary Off
Versions: 1 2 3 4 5 6 7 8 9 10 11 12 13 14 15 16 17 18 19 20 21 22 23 24 25 26 27 28

000
ASUS45 KBOU 181910
RWRCO

WEATHER ROUNDUP FOR COLORADO
NATIONAL WEATHER SERVICE DENVER/BOULDER CO
1200 PM MST SAT NOV 18 2017

NOTE: "FAIR" INDICATES FEW OR NO CLOUDS BELOW 12000 FEET WITH NO
SIGNIFICANT WEATHER AND/OR OBSTRUCTIONS TO VISIBILITY.

COZ001>005-013-030-031-182000-
...NORTHWEST COLORADO...

CITY           SKY/WX    TMP DP  RH WIND       PRES   REMARKS
CRAIG          FAIR      28  20  71 CALM      30.42F
HAYDEN         FAIR      29  17  61 NE5       30.42F WCI  24
MEEKER         FAIR      27  19  72 MISG      30.40F
RABBIT EARS PA FAIR     N/A N/A N/A W10G17    30.29S
STEAMBOAT SPGS FAIR      27  14  58 SW3       30.40F
WALDEN         FAIR      23   9  54 SW10      30.33F WCI  12
$$

COZ006>008-011-182000-
...WEST CENTRAL VALLEYS...

CITY           SKY/WX    TMP DP  RH WIND       PRES   REMARKS
GRAND JUNCTION FAIR      39  19  44 SE6       30.44F
MONTROSE       FAIR      35  19  52 CALM      30.45F
EAGLE          FAIR      31  13  47 CALM      30.44F
RIFLE          FAIR      32  20  61 CALM      30.45F
DELTA          FAIR      39  13  33 CALM      30.45F
NUCLA          FAIR      37  14  38 NW8       30.43F
$$

COZ017>023-064>068-182000-
...SOUTHWEST COLORADO...

CITY           SKY/WX    TMP DP  RH WIND       PRES   REMARKS
DURANGO        FAIR      37  13  37 CALM      30.34F
CORTEZ         FAIR      41  14  33 CALM      30.36F
PAGOSA SPRINGS FAIR      36  10  33 CALM      30.34F
TELLURIDE      NOT AVBL
WOLF CREEK PAS FAIR      23   7  50 W6        30.38F WCI  16
$$

COZ009-010-012-014-032>034-037-058>063-182000-
...CENTRAL COLORADO...

CITY           SKY/WX    TMP DP  RH WIND       PRES   REMARKS
ASPEN          FAIR      26  11  52 W5        30.36F WCI  20
BUENA VISTA    FAIR      32   6  33 CALM      30.28F
COPPER MTN     FAIR      19   3  49 S3        30.28F
BERTHOUD PASS  PTSUNNY    3  -8  60 N32G41    30.17S WCI -22
COTTONWOOD PAS FAIR      30  12  47 SE9       30.27F WCI  22
GUNNISON       FAIR      24  13  62 VRB3      30.39F
KREMMLING      FAIR      36  14  41 SW9       30.38F
LEADVILLE      FAIR      20   6  55 NW13      30.28F WCI   7
MONARCH PASS     N/A     12  10  92 W28G36    30.36S WCI  -9
SALIDA         FAIR      34  12  40 N5        30.36F WCI  30
SUNLIGHT       FAIR      16   3  57 MISG      30.37F
WILKERSON PASS FAIR      21  -6  30 NW7       30.28R WCI  13
$$

COZ069>075-182000-
...SAN LUIS VALLEY/SANGRE DE CRISTO MOUNTAINS...

CITY           SKY/WX    TMP DP  RH WIND       PRES   REMARKS
ALAMOSA        FAIR      34   7  32 CALM      30.32F
DEL NORTE      FAIR      35   7  32 E7        30.32F WCI  29
LA VETA PASS   FAIR      27   3  36 SW23G33     N/A  WCI  12
SAGUACHE       FAIR      32   9  37 NW16G24   30.33F WCI  21
$$

COZ035-036-038>040-182000-
...NORTHERN COLORADO FRONT RANGE...

CITY           SKY/WX    TMP DP  RH WIND       PRES   REMARKS
DENVER INTL AP FAIR      39  16  39 SE16      30.21F
DMNS CITY PARK   N/A     44   7  22 SE6       30.20F
AURORA         MOSUNNY   40  16  38 S8        30.22F
FRONT RANGE AP MOSUNNY   41  18  38 S14       30.23F
ERIE MUNI ARPT FAIR      47   4  16 SW8       30.26F
BOULDER MUN AP FAIR      46   9  21 N5        30.20S
CENTENNIAL     FAIR      38  16  40 S10       30.21F
BROOMFIELD     MOSUNNY   45  10  24 S9        30.22S
FORT COLLINS   FAIR      44  13  28 S6        30.22F
LONGMONT       FAIR      48  12  23 NE3       30.22F
$$

COZ041-046-047-076>085-087-088-182000-
...PIKES PEAK/PALMER DIVIDE AND SOUTHERN FOOTHILLS...

CITY           SKY/WX    TMP DP  RH WIND       PRES   REMARKS
COLO. SPRINGS  FAIR      39  11  31 S9        30.25F
A. F. ACADEMY  FAIR      36  17  46 SE10      30.22F
SCHRIEVER AFB  FAIR      39  10  30 SW8       30.25F
CHEYENNE MTN   FAIR      35  16  44 SE15      30.17F WCI  26
ELLICOTT       NOT AVBL
FALCON         FAIR      38  10  31 SW9       30.24F
FORT CARSON    FAIR      41  10  28 S8        30.23F
LIMON          FAIR      37  16  42 W3        30.25F
MONUMENT HILL  FAIR      32  12  43 S7        30.23F WCI  26
CANON CITY     FAIR      46  12  25 W5        30.23F
WALSENBURG     FAIR      39  23  52 N3        30.25F
TRINIDAD       FAIR      39  22  50 VRB3      30.28F
$$

COZ042>045-048>051-090-091-182000-
...NORTHEAST COLORADO...

CITY           SKY/WX    TMP DP  RH WIND       PRES   REMARKS
GREELEY ARPT   FAIR      45  16  31 S9        30.24F
AKRON          FAIR      42  11  28 N26G32    30.22F
BURLINGTON     FAIR      44  17  33 N21G32    30.23F
WRAY           NOT AVBL
YUMA           FAIR      41  14  33 NW22G30   30.23F
STERLING       FAIR      43  18  36 N30G36    30.22F
HOLYOKE        FAIR      46  16  29 NW22G32   30.21F
FORT MORGAN    FAIR      46   9  22 NW13G21   30.24F
$$

COZ086-089-092>099-182000-
...SOUTHEAST COLORADO...

CITY           SKY/WX    TMP DP  RH WIND       PRES   REMARKS
PUEBLO         FAIR      45  12  26 NE6       30.25F
LA JUNTA       FAIR      49  14  24 NW13G18   30.27F
LAMAR          FAIR      49  14  24 N20G28    30.25F
SPRINGFIELD      N/A     47  18  31 NW20G28   30.26F
$$




USA.gov is the U.S. government's official web portal to all federal, state and local government web resources and services.